SL-16 R/B, 17590

Orbit data source: Space-Track

SL-16 R/B, 17590 is space debris in LEO originally from a launch on Wed, 18 Mar 1987 UTC launched from the Tyuratam Missile And Space Complex (TTMTR). Debris objects in space refer to the collection of defunct objects orbiting the Earth. Examples of debris include non-operational satellites, rocket bodies, and fragments generated from explosions, collisions, or faulty payload assembly.

Loading next visibility...
Identifier
17590, 1987-027B
Orbit
LEO
Country
Flag of CISCIS
Related business
Manufacturer
Yuzhnoe
Mission
Spacecraft
Bus & Motor
11S772, Unknown motor
Mass
9,000 kg wet, 9,000 kg dry
Launch date (UTC)
1987-03-18 (39 years ago)
Launch vehicle
Unknown
Launch site
Tyuratam Missile And Space Complex (TTMTR)
Object type
Payload
Rocket body
Debris
Shape & HBR
Cyl, 5.2 m
Radar Cross Section
37.829 m², Large (>1 m²)

Expand to show TLE details & history
Last TLE update: 21 hours ago

TLE from 21 hours ago
0 SL-16 R/B
1 17590U 87027B   25349.69644918  .00000179  00000-0  11264-3 0  9990
2 17590  71.0032  93.4879 0007309 256.1373 103.8938 14.17152960  3442
Epoch: 2025-12-15T16:42Z
TLE epoch observation values (Epoch: 2025-12-15T16:42:53.209Z)
Latitude
0.00001°
Longitude
118.17489°
Altitude
838.67 km
Speed
7.433 km/s
True Right ascension
06h 13m 57s
True Declination
0° 00' 00"
Sunlit
Object was in full shadow at epoch
Visualization orbit readout
Latitude
Unknown
Longitude
Unknown
Altitude
Unknown
Speed
Unknown
Apparent Right ascension
Unknown
Apparent Declination
Unknown
Sunlit
N/A
Visualization observer readout
Local Sidereal Time
12:41:23
Azimuth
Unknown
Elevation
Unknown
Doppler factor
Unknown
Orbital elements
Apogee altitude
838.19 km
Perigee altitude
827.649 km
Semi-major axis
7,211.057 km
Eccentricity
0.00073
Inclination
71.0032°
RAAN
93.4879°
Arg. of periapsis
256.1373°
True anomaly
103.97509°
Mean anomaly
103.8938°
Eccentric anomaly
103.93445°
Mean motion
3.54442 °/min
Orbital period
101.57 mins
BSTAR
0.00011264
Loading maneuver chart data...
Computing Atmospheric mass density...
Loading historical data...
Loading historical data...
Loading historical data...
Loading historical data...
Loading historical data...
Loading historical data...
Loading historical data...

Documentation

Showing up to 5 results
|